Location: Mountain Grove
(34.0887°N, 86.6172°W)
Time: 15:22:37
(UTC+00:00)

Cosmos 1825 - Pass Details

Date: 14 July 2020
Orbit: 502 x 509 km, 82.5° (Epoch: 12 August)

Event Time Altitude Azimuth Distance (km) Brightness Sun altitude
Exits shadow 03:25:56 32° 32° (NNE) 896 3.5 -24.3°
Drops below altitude 10° 03:28:10 10° 16° (NNE) 1,730 5.3 -24.6°
Sets 03:30:19 0° 12° (NNE) 2,620 6.4 -24.8°
